Location: Sungai Igah
(2.7333°N, 114.2500°E)
Time: 20:15:07
(UTC+00:00)

ASTRO E2 - Pass Details

Date: 14 June 2021
Orbit: 507 x 513 km, 31.4° (Epoch: 26 July)

Event Time Altitude Azimuth Distance (km) Brightness Sun altitude
Rises 21:32:34 0° 317° (NW) 2,597 6.1 -10.6°
Reaches altitude 10° 21:34:57 10° 327° (NNW) 1,713 5.2 -10.0°
Maximum altitude 21:38:32 33° 32° (NNE) 861 4.4 -9.2°
Drops below altitude 10° 21:42:07 10° 98° (E) 1,712 6.3 -8.4°
Sets 21:44:29 0° 107° (ESE) 2,597 7.1 -7.8°
